Newark, NJ

4:50 PM EST on February 19, 2017 (GMT -0500)
Newark International

Weather History for KEWR - May, 2013

Change the Weather History Date:

Sunday, May 12, 2013

  Actual Average Record
Temperature  
Mean Temperature 60 °F 61 °F  
Max Temperature 69 °F 71 °F 92 °F (1959)
Min Temperature 50 °F 52 °F 40 °F (1938)
Degree Days  
Heating Degree Days 5 5  
Month to date heating degree days 69 75  
Since 1 July heating degree days 4559 4795  
Cooling Degree Days 0 1  
Month to date cooling degree days 6 12  
Year to date cooling degree days 9 24  
Growing Degree Days 11 (Base 50)    
Moisture  
Dew Point 39 °F    
Average Humidity 53    
Maximum Humidity 87    
Minimum Humidity 19    
Precipitation  
Precipitation T in 0.12 in 2.54 in (1943)
Month to date precipitation 3.55 1.49  
Year to date precipitation 14.36 16.29  
Snow  
Snow 0.00 in 0.00 in 0.00 in (2002)
Month to date snowfall 0.0 0.0  
Since 1 July snowfall 29.5 28.5  
Snow Depth 0.00 in    
Sea Level Pressure  
Sea Level Pressure 29.75 in    
Wind  
Wind Speed 15 mph (West)    
Max Wind Speed 30 mph    
Max Gust Speed 39 mph    
Visibility 10 miles    
Events Rain    
T = Trace of Precipitation, MM = Missing Value Source: NWS Daily Summary

Daily Weather History Graph

Daily Weather History Graph

Search for Another Location

Airport or City:

Trip Planner

Search our weather history database for the weather conditions in past years. The results will help you decide how hot, cold, wet, or windy it might be!

Date:

Astronomy

May. 12, 2013 Rise Set
Actual Time 5:42 AM EDT 8:04 PM EDT
Civil Twilight 5:11 AM EDT 8:35 PM EDT
Nautical Twilight 4:33 AM EDT 9:13 PM EDT
Astronomical Twilight 3:51 AM EDT 9:55 PM EDT
Moon 7:35 AM EDT (5/12) 10:29 PM EDT (5/12)
Length of Visible Light 15h 23m
Length of Day
14h 21m
Waxing Crescent, 6% of the Moon is Illuminated
May 12
Waxing Crescent
May 18
First Quarter
May 25
Full
May 31
Last Quarter
Jun 8
New

Hourly Weather History & Observations

Time (EDT) Temp. Dew Point Humidity Pressure Visibility Wind Dir Wind Speed Gust Speed Precip Events Conditions
12:51 AM 64.0 °F 60.1 °F 87% 29.70 in 10.0 mi West 5.8 mph - N/A   Mostly Cloudy
1:51 AM 64.0 °F 55.0 °F 73% 29.69 in 10.0 mi WSW 9.2 mph - N/A   Mostly Cloudy
2:51 AM 62.1 °F 55.0 °F 78% 29.67 in 10.0 mi West 9.2 mph - N/A   Mostly Cloudy
3:51 AM 62.1 °F 53.1 °F 72% 29.69 in 10.0 mi West 5.8 mph - N/A   Overcast
4:51 AM 62.1 °F 51.1 °F 67% 29.69 in 10.0 mi WSW 3.5 mph - N/A   Overcast
5:51 AM 61.0 °F 51.1 °F 70% 29.71 in 10.0 mi West 6.9 mph - 0.00 in Rain Light Rain
6:51 AM 59.0 °F 48.9 °F 69% 29.72 in 10.0 mi West 11.5 mph - 0.00 in Rain Light Rain
7:51 AM 59.0 °F 46.0 °F 62% 29.72 in 10.0 mi West 9.2 mph - 0.00 in   Mostly Cloudy
8:51 AM 62.1 °F 43.0 °F 50% 29.70 in 10.0 mi NW 11.5 mph - N/A   Mostly Cloudy
9:51 AM 64.9 °F 44.1 °F 47% 29.70 in 10.0 mi West 13.8 mph 20.7 mph N/A   Scattered Clouds
10:51 AM 68.0 °F 45.0 °F 43% 29.70 in 10.0 mi WNW 15.0 mph 25.3 mph N/A   Scattered Clouds
11:51 AM 66.9 °F 44.1 °F 44% 29.70 in 10.0 mi West 16.1 mph 27.6 mph N/A   Mostly Cloudy
12:51 PM 69.1 °F 39.9 °F 35% 29.69 in 10.0 mi West 19.6 mph 27.6 mph N/A   Mostly Cloudy
1:51 PM 68.0 °F 36.0 °F 31% 29.70 in 10.0 mi West 24.2 mph 31.1 mph N/A   Scattered Clouds
2:51 PM 66.9 °F 28.9 °F 24% 29.70 in 10.0 mi West 23.0 mph 33.4 mph N/A   Scattered Clouds
3:51 PM 66.9 °F 26.1 °F 21% 29.71 in 10.0 mi WSW 24.2 mph 32.2 mph N/A   Scattered Clouds
4:51 PM 66.0 °F 23.0 °F 20% 29.73 in 10.0 mi West 21.9 mph 35.7 mph N/A   Scattered Clouds
5:51 PM 64.0 °F 26.1 °F 24% 29.77 in 10.0 mi WSW 27.6 mph 34.5 mph N/A   Scattered Clouds
6:51 PM 62.1 °F 21.0 °F 21% 29.79 in 10.0 mi West 27.6 mph 33.4 mph N/A   Scattered Clouds
7:51 PM 59.0 °F 23.0 °F 25% 29.83 in 10.0 mi West 16.1 mph - N/A   Scattered Clouds
8:51 PM 57.9 °F 24.1 °F 27% 29.86 in 10.0 mi West 15.0 mph - N/A   Scattered Clouds
9:51 PM 55.0 °F 27.0 °F 34% 29.91 in 10.0 mi WNW 15.0 mph 25.3 mph N/A   Partly Cloudy
10:51 PM 53.1 °F 25.0 °F 34% 29.93 in 10.0 mi West 20.7 mph 26.5 mph N/A   Partly Cloudy
11:51 PM 52.0 °F 25.0 °F 35% 29.94 in 10.0 mi West 11.5 mph 19.6 mph N/A   Partly Cloudy